Location: Home
(42.5358°N, 72.7383°W)
Time: 12:29:53
(UTC-05:00)

Transit 4A - Visible Passes

Search period start: 30 November 2021 00:00
Search period end: 10 December 2021 00:00
Orbit: 866 x 978 km, 66.8° (Epoch: 29 November)

Date Brightness Start Highest point End Pass type
(mag) Time Alt. Az. Time Alt. Az. Time Alt. Az.
30 Nov 10.3 02:52:32 16° NE 02:52:32 16° NE 02:55:21 10° ENE visible
30 Nov 8.2 04:36:05 31° NNW 04:39:08 65° NE 04:45:28 10° SE visible
30 Nov 9.2 06:20:14 10° WNW 06:25:01 23° WSW 06:29:49 10° SSW visible
30 Nov 10.2 19:40:20 10° SSW 19:40:34 11° SSW 19:40:34 11° SSW visible
01 Dec 10.1 03:02:18 20° NE 03:02:18 20° NE 03:05:58 10° E visible
01 Dec 7.9 04:45:51 38° NNW 04:48:29 89° WSW 04:54:52 10° SSE visible
01 Dec 9.7 18:06:12 10° SE 18:07:06 13° SE 18:07:06 13° SE visible
01 Dec 10.0 19:49:35 10° SW 19:50:41 16° SW 19:50:41 16° SW visible
02 Dec 9.7 03:12:09 26° ENE 03:12:09 26° ENE 03:16:18 10° ESE visible
02 Dec 7.9 04:55:43 42° NW 04:57:45 63° WSW 05:04:00 10° SSE visible
02 Dec 9.1 18:14:06 10° SSE 18:17:12 23° SE 18:17:12 23° SE visible
02 Dec 9.9 19:59:06 10° SW 20:00:46 19° SW 20:00:46 19° SW visible
03 Dec 9.4 03:22:05 33° E 03:22:05 33° E 03:26:21 10° ESE visible
03 Dec 8.3 05:05:39 39° W 05:06:55 43° WSW 05:12:53 10° S visible
03 Dec 8.4 18:22:33 10° S 18:27:14 38° SE 18:27:14 38° SE visible
03 Dec 10.0 20:08:51 10° WSW 20:10:48 20° WSW 20:10:48 20° WSW visible
04 Dec 9.2 03:32:06 37° ESE 03:32:06 37° ESE 03:36:09 10° SE visible
04 Dec 8.7 05:15:40 29° WSW 05:16:02 30° WSW 05:21:25 10° SSW visible
04 Dec 7.8 18:31:20 10° SSW 18:37:04 59° ESE 18:37:12 59° ESE visible
04 Dec 10.1 20:18:50 10° WSW 20:20:46 18° W 20:20:46 18° W visible
05 Dec 9.2 03:42:11 35° SE 03:42:11 35° SE 03:45:43 10° SE visible
05 Dec 9.3 05:25:45 20° WSW 05:25:45 20° WSW 05:29:29 10° SSW visible
05 Dec 9.5 16:58:32 10° SE 17:00:56 13° E 17:03:22 10° ENE visible
05 Dec 7.7 18:40:26 10° SSW 18:46:17 86° ESE 18:47:05 69° NE visible
05 Dec 10.4 20:29:07 10° W 20:30:39 15° WNW 20:30:39 15° WNW visible
06 Dec 9.4 03:52:18 27° SSE 03:52:18 27° SSE 03:55:01 10° SSE visible
06 Dec 9.8 05:35:53 11° WSW 05:35:53 11° WSW 05:36:39 10° SW visible
06 Dec 9.1 17:05:46 10° SSE 17:09:53 20° ESE 17:13:20 13° ENE visible
06 Dec 8.0 18:49:46 10° SW 18:55:36 66° WNW 18:56:53 52° N visible
06 Dec 10.6 20:39:41 10° WNW 20:40:27 12° WNW 20:40:27 12° WNW visible
07 Dec 9.8 04:02:27 19° S 04:02:27 19° S 04:04:05 10° S visible
07 Dec 8.7 17:13:53 10° SSE 17:18:55 30° ESE 17:23:04 14° NE visible
07 Dec 8.6 18:59:22 10° SW 19:05:00 46° NW 19:06:36 38° NNW visible
08 Dec 10.2 04:12:36 11° S 04:12:36 11° S 04:12:50 10° S visible
08 Dec 8.2 17:22:28 10° S 17:28:01 45° ESE 17:32:42 15° NE visible
08 Dec 9.2 19:09:12 10° WSW 19:14:30 33° NW 19:16:14 28° NNW visible
09 Dec 7.8 17:31:22 10° SSW 17:37:11 68° ESE 17:42:16 15° NE visible
09 Dec 9.6 19:19:17 10° W 19:24:05 25° NW 19:25:48 22° NNW visible
